When you browse on this site, cookies collect data to enhance your experience and personalize the content and advertising you see.
Visit our Privacy Policy to learn more. By continuing to use the site, you agree to this use of cookies and data.
  • In Czech Republic
  • List of Countries
  • For 7 days
  • Water Temperature
  • Weather Map
  • Weather Widgets
  • user-avatar
    Login

    Hourly Weather La Roche-sur-Yon

    Today, 4 June, Thursday

    Time Temperature Precipitation Wind Pressure Humidity
    00:00 +12°C° 0.1 mm 3 mps 744 mmHg 93%
    01:00 +11°C° 0.1 mm 3 mps 744 mmHg 94%
    02:00 +11°C° 0.1 mm 3 mps 744 mmHg 95%
    03:00 +10°C° 0.1 mm 3 mps 743 mmHg 96%
    04:00 +11°C° 0.1 mm 3 mps 743 mmHg 94%
    05:00 +12°C° 0.1 mm 4 mps 744 mmHg 92%
    06:00 +13°C° 0.1 mm 4 mps 744 mmHg 90%
    07:00 +14°C° 0.2 mm 4 mps 744 mmHg 87%
    08:00 +14°C° 0.2 mm 5 mps 744 mmHg 83%
    09:00 +15°C° 0.2 mm 5 mps 745 mmHg 80%
    10:00 +16°C° 0.3 mm 5 mps 745 mmHg 74%
    11:00 +17°C° 0.3 mm 6 mps 745 mmHg 69%
    12:00 +19°C° 0.3 mm 6 mps 746 mmHg 64%
    13:00 +18°C° 0.3 mm 7 mps 746 mmHg 63%
    14:00 +18°C° 0.3 mm 7 mps 746 mmHg 63%
    15:00 +18°C° 0.3 mm 7 mps 746 mmHg 63%
    16:00 +17°C° 0.1 mm 7 mps 746 mmHg 63%
    17:00 +16°C° 0.1 mm 7 mps 746 mmHg 62%
    18:00 +15°C° 0.1 mm 6 mps 747 mmHg 61%
    19:00 +14°C° 0 mm 5 mps 747 mmHg 65%
    20:00 +12°C° 0 mm 4 mps 748 mmHg 68%
    21:00 +11°C° 0 mm 3 mps 749 mmHg 72%
    22:00 +11°C° 0 mm 3 mps 749 mmHg 75%
    23:00 +10°C° 0 mm 3 mps 749 mmHg 77%

    Tomorrow, 5 June, Friday

    Time Temperature Precipitation Wind Pressure Humidity
    00:00 +10°C° 0 mm 3 mps 749 mmHg 80%
    01:00 +10°C° 0 mm 3 mps 749 mmHg 79%
    02:00 +11°C° 0 mm 4 mps 749 mmHg 79%
    03:00 +11°C° 0 mm 4 mps 749 mmHg 79%
    04:00 +12°C° 0.1 mm 5 mps 748 mmHg 81%
    05:00 +13°C° 0.1 mm 6 mps 748 mmHg 83%
    06:00 +14°C° 0.1 mm 7 mps 748 mmHg 86%
    07:00 +15°C° 0.2 mm 7 mps 748 mmHg 85%
    08:00 +15°C° 0.2 mm 7 mps 748 mmHg 84%
    09:00 +15°C° 0.2 mm 7 mps 748 mmHg 84%
    10:00 +16°C° 0.2 mm 8 mps 748 mmHg 80%
    11:00 +17°C° 0.2 mm 8 mps 748 mmHg 77%
    12:00 +17°C° 0.2 mm 8 mps 748 mmHg 73%
    13:00 +17°C° 0.1 mm 8 mps 748 mmHg 73%
    14:00 +17°C° 0.1 mm 8 mps 748 mmHg 73%
    15:00 +17°C° 0.1 mm 8 mps 747 mmHg 73%
    16:00 +16°C° 0.1 mm 8 mps 747 mmHg 75%
    17:00 +16°C° 0.1 mm 8 mps 747 mmHg 77%
    18:00 +16°C° 0.1 mm 8 mps 747 mmHg 79%
    19:00 +15°C° 0.1 mm 7 mps 748 mmHg 80%
    20:00 +15°C° 0.1 mm 7 mps 748 mmHg 82%
    21:00 +15°C° 0.1 mm 6 mps 748 mmHg 83%
    22:00 +15°C° 0.1 mm 6 mps 748 mmHg 84%
    23:00 +15°C° 0.1 mm 6 mps 748 mmHg 86%

    Day after tomorrow, 6 June, Saturday

    Time Temperature Precipitation Wind Pressure Humidity
    00:00 +14°C° 0.1 mm 6 mps 748 mmHg 87%
    01:00 +14°C° 0.1 mm 5 mps 748 mmHg 87%
    02:00 +14°C° 0.1 mm 5 mps 748 mmHg 87%
    03:00 +14°C° 0.1 mm 5 mps 748 mmHg 87%
    04:00 +14°C° 0.1 mm 5 mps 748 mmHg 86%
    05:00 +14°C° 0.1 mm 4 mps 748 mmHg 85%
    06:00 +14°C° 0.1 mm 4 mps 748 mmHg 84%
    07:00 +14°C° 0.1 mm 5 mps 749 mmHg 78%
    08:00 +15°C° 0.1 mm 5 mps 749 mmHg 73%
    09:00 +15°C° 0.1 mm 5 mps 749 mmHg 67%
    10:00 +16°C° 0 mm 6 mps 749 mmHg 63%
    11:00 +16°C° 0 mm 6 mps 749 mmHg 59%
    12:00 +17°C° 0 mm 7 mps 750 mmHg 54%
    13:00 +17°C° 0 mm 7 mps 749 mmHg 54%
    14:00 +17°C° 0 mm 7 mps 749 mmHg 54%
    15:00 +17°C° 0 mm 7 mps 749 mmHg 54%
    16:00 +16°C° 0 mm 7 mps 750 mmHg 56%
    17:00 +15°C° 0 mm 6 mps 750 mmHg 58%
    18:00 +14°C° 0 mm 6 mps 750 mmHg 60%
    19:00 +13°C° 0 mm 5 mps 750 mmHg 65%
    20:00 +10°C° 0 mm 5 mps 751 mmHg 71%
    21:00 +10°C° 0 mm 4 mps 751 mmHg 76%
    22:00 +9°C° 0 mm 3 mps 751 mmHg 76%
    23:00 +8°C° 0 mm 3 mps 751 mmHg 77%

    7 June, Sunday

    Time Temperature Precipitation Wind Pressure Humidity
    00:00 +8°C° 0 mm 2 mps 751 mmHg 78%
    01:00 +7°C° 0 mm 2 mps 751 mmHg 79%
    02:00 +8°C° 0 mm 1 mps 751 mmHg 80%
    03:00 +8°C° 0 mm 1 mps 751 mmHg 81%
    04:00 +9°C° 0.1 mm 1 mps 752 mmHg 79%
    05:00 +10°C° 0.1 mm 1 mps 752 mmHg 77%
    06:00 +10°C° 0.1 mm 2 mps 752 mmHg 75%
    07:00 +12°C° 0 mm 2 mps 752 mmHg 69%
    08:00 +14°C° 0 mm 2 mps 752 mmHg 63%
    09:00 +16°C° 0 mm 2 mps 753 mmHg 57%
    10:00 +17°C° 0 mm 2 mps 753 mmHg 56%
    11:00 +17°C° 0 mm 3 mps 753 mmHg 54%
    12:00 +18°C° 0 mm 4 mps 753 mmHg 53%
    13:00 +17°C° 0.1 mm 5 mps 753 mmHg 56%
    14:00 +17°C° 0.1 mm 5 mps 753 mmHg 59%
    15:00 +16°C° 0.1 mm 6 mps 753 mmHg 63%
    16:00 +16°C° 0 mm 5 mps 753 mmHg 63%
    17:00 +16°C° 0 mm 5 mps 753 mmHg 64%
    18:00 +16°C° 0 mm 5 mps 753 mmHg 65%
    19:00 +14°C° 0 mm 4 mps 753 mmHg 72%
    20:00 +13°C° 0 mm 3 mps 754 mmHg 78%
    21:00 +11°C° 0 mm 3 mps 754 mmHg 84%
    22:00 +12°C° 0 mm 2 mps 754 mmHg 86%
    23:00 +10°C° 0 mm 2 mps 754 mmHg 87%

    8 June, Monday

    Time Temperature Precipitation Wind Pressure Humidity
    00:00 +11°C° 0 mm 1 mps 754 mmHg 89%
    01:00 +10°C° 0 mm 1 mps 754 mmHg 89%
    02:00 +10°C° 0 mm 1 mps 754 mmHg 89%
    03:00 +9°C° 0 mm 0 mps 753 mmHg 89%
    04:00 +11°C° 0 mm 1 mps 754 mmHg 88%
    05:00 +11°C° 0 mm 1 mps 754 mmHg 86%
    06:00 +12°C° 0 mm 1 mps 754 mmHg 85%
    07:00 +14°C° 0.1 mm 1 mps 754 mmHg 79%
    08:00 +16°C° 0.1 mm 1 mps 754 mmHg 73%
    09:00 +19°C° 0.1 mm 1 mps 755 mmHg 66%
    10:00 +19°C° 0.5 mm 1 mps 755 mmHg 65%
    11:00 +20°C° 0.5 mm 1 mps 755 mmHg 63%
    12:00 +20°C° 0.5 mm 1 mps 755 mmHg 62%
    13:00 +19°C° 0.3 mm 2 mps 755 mmHg 62%
    14:00 +19°C° 0.3 mm 2 mps 755 mmHg 62%
    15:00 +20°C° 0.3 mm 2 mps 755 mmHg 62%
    16:00 +19°C° 0.2 mm 3 mps 755 mmHg 65%
    17:00 +19°C° 0.2 mm 3 mps 755 mmHg 69%
    18:00 +19°C° 0.2 mm 4 mps 755 mmHg 72%
    19:00 +17°C° 0.1 mm 4 mps 756 mmHg 78%
    20:00 +16°C° 0.1 mm 3 mps 756 mmHg 83%
    21:00 +13°C° 0.1 mm 3 mps 756 mmHg 89%
    22:00 +13°C° 0 mm 3 mps 757 mmHg 91%
    23:00 +12°C° 0 mm 4 mps 757 mmHg 93%

    9 June, Tuesday

    Time Temperature Precipitation Wind Pressure Humidity
    00:00 +12°C° 0 mm 4 mps 757 mmHg 94%
    01:00 +11°C° 0 mm 4 mps 757 mmHg 95%
    02:00 +11°C° 0 mm 4 mps 757 mmHg 96%
    03:00 +10°C° 0 mm 4 mps 757 mmHg 96%
    04:00 +11°C° 0 mm 4 mps 757 mmHg 95%
    05:00 +11°C° 0 mm 4 mps 758 mmHg 94%
    06:00 +11°C° 0 mm 4 mps 758 mmHg 93%
    07:00 +13°C° 0 mm 5 mps 758 mmHg 87%
    08:00 +15°C° 0 mm 5 mps 758 mmHg 82%
    09:00 +16°C° 0 mm 5 mps 759 mmHg 76%
    10:00 +17°C° 0.1 mm 5 mps 759 mmHg 69%
    11:00 +19°C° 0.1 mm 5 mps 759 mmHg 62%
    12:00 +20°C° 0.1 mm 5 mps 759 mmHg 55%
    13:00 +21°C° 0 mm 5 mps 759 mmHg 53%
    14:00 +21°C° 0 mm 5 mps 758 mmHg 52%
    15:00 +21°C° 0 mm 5 mps 758 mmHg 50%
    16:00 +20°C° 0 mm 4 mps 758 mmHg 53%
    17:00 +20°C° 0 mm 4 mps 758 mmHg 57%
    18:00 +19°C° 0 mm 4 mps 759 mmHg 60%
    19:00 +17°C° 0 mm 3 mps 759 mmHg 66%
    20:00 +16°C° 0 mm 3 mps 759 mmHg 71%
    21:00 +14°C° 0 mm 2 mps 759 mmHg 77%
    22:00 +13°C° 0 mm 2 mps 759 mmHg 78%
    23:00 +13°C° 0 mm 2 mps 759 mmHg 79%
    Show more